AAL1799 KPHX-KBUR

Flight info

Callsign AAL1799
Flight time N/A
Altitude 30000
Route KEENS3 HRRBR PHRED THRNE4
Aircraft A320/M-SDE3FGHIRWY/LB1

Departure

Time 2026-05-03 21:23
Airport Phoenix Sky Harbor International Airport (KPHX)

Arrival

Time N/A
Airport Hollywood Burbank/Bob Hope Airport (KBUR)
Time Latitude Longitude Altitude Speed Heading
2026-05-03 21:06 33.43757 -112.00291 1136 ft 0 kts
2026-05-03 21:17 33.43823 -112.00296 1133 ft 7 kts 353°
2026-05-03 21:17 33.43841 -112.00299 1131 ft 9 kts 352°
2026-05-03 21:18 33.43906 -112.00242 1131 ft 17 kts 78°
2026-05-03 21:18 33.43908 -112.00047 1135 ft 29 kts 92°
2026-05-03 21:18 33.43905 -111.99783 1131 ft 32 kts 90°
2026-05-03 21:18 33.43904 -111.99540 1131 ft 27 kts 90°
2026-05-03 21:19 33.43905 -111.99318 1132 ft 22 kts 90°
2026-05-03 21:19 33.43851 -111.99231 1134 ft 17 kts 166°
2026-05-03 21:19 33.43688 -111.99229 1133 ft 29 kts 181°
2026-05-03 21:19 33.43475 -111.99229 1133 ft 31 kts 179°
2026-05-03 21:20 33.43269 -111.99227 1134 ft 18 kts 184°
2026-05-03 21:20 33.43254 -111.99230 1131 ft 5 kts 192°
2026-05-03 21:20 33.43242 -111.99235 1134 ft 0 kts 202°
2026-05-03 21:21 33.43222 -111.99250 1135 ft 5 kts 214°
2026-05-03 21:21 33.43207 -111.99265 1136 ft 0 kts 221°
2026-05-03 21:22 33.43166 -111.99309 1135 ft 10 kts 223°
2026-05-03 21:22 33.43125 -111.99355 1136 ft 7 kts 223°
2026-05-03 21:22 33.43102 -111.99464 1139 ft 24 kts 268°
2026-05-03 21:22 33.43102 -111.99942 1138 ft 92 kts 270°
2026-05-03 21:23 33.43102 -112.00942 1131 ft 146 kts 270°
2026-05-03 21:23 33.43106 -112.02288 1356 ft 167 kts 269°
2026-05-03 21:23 33.43068 -112.03679 1985 ft 168 kts 266°
2026-05-03 21:23 33.42985 -112.05082 2615 ft 169 kts 265°
2026-05-03 21:24 33.42894 -112.06505 3099 ft 179 kts 265°
2026-05-03 21:24 33.42734 -112.08075 3286 ft 201 kts 252°
2026-05-03 21:24 33.42213 -112.09672 3692 ft 209 kts 248°
2026-05-03 21:24 33.41664 -112.11339 4043 ft 225 kts 249°
2026-05-03 21:25 33.41074 -112.13182 4348 ft 249 kts 249°
2026-05-03 21:25 33.40451 -112.15169 4860 ft 264 kts 250°
2026-05-03 21:25 33.39802 -112.17251 5644 ft 269 kts 250°
2026-05-03 21:25 33.39243 -112.19398 6436 ft 273 kts 262°
2026-05-03 21:26 33.39307 -112.21670 7217 ft 276 kts 280°
2026-05-03 21:26 33.39655 -112.23942 8015 ft 279 kts 280°
2026-05-03 21:26 33.40010 -112.26239 8787 ft 282 kts 280°
2026-05-03 21:26 33.40364 -112.28566 9544 ft 286 kts 280°
2026-05-03 21:27 33.40719 -112.30919 10280 ft 289 kts 280°
2026-05-03 21:27 33.41079 -112.33325 10602 ft 309 kts 280°
2026-05-03 21:27 33.41467 -112.35950 10795 ft 332 kts 280°
2026-05-03 21:27 33.41877 -112.38716 11280 ft 342 kts 280°
2026-05-03 21:28 33.42296 -112.41535 11935 ft 346 kts 280°
2026-05-03 21:28 33.42718 -112.44388 12607 ft 350 kts 280°
2026-05-03 21:28 33.43144 -112.47270 13259 ft 353 kts 280°
2026-05-03 21:28 33.43572 -112.50176 13895 ft 356 kts 280°
2026-05-03 21:29 33.44002 -112.53110 14509 ft 360 kts 280°
2026-05-03 21:29 33.44435 -112.56074 15114 ft 363 kts 280°
2026-05-03 21:29 33.44864 -112.59024 15697 ft 366 kts 279°
2026-05-03 21:29 33.45059 -112.62078 16260 ft 370 kts 271°
2026-05-03 21:30 33.45096 -112.65169 16828 ft 373 kts 271°
2026-05-03 21:30 33.45132 -112.68282 17380 ft 376 kts 271°
2026-05-03 21:30 33.45168 -112.71425 17923 ft 379 kts 271°
2026-05-03 21:30 33.45207 -112.74590 18470 ft 382 kts 271°
2026-05-03 21:31 33.45249 -112.77783 18990 ft 385 kts 271°
2026-05-03 21:31 33.45473 -112.80983 19495 ft 388 kts 280°
2026-05-03 21:31 33.46042 -112.84108 19996 ft 391 kts 283°
2026-05-03 21:31 33.46645 -112.87292 20501 ft 394 kts 283°
2026-05-03 21:32 33.47250 -112.90501 20998 ft 397 kts 282°
2026-05-03 21:32 33.47857 -112.93739 21476 ft 400 kts 282°
2026-05-03 21:32 33.48466 -112.96999 21947 ft 402 kts 282°
2026-05-03 21:32 33.49077 -113.00283 22400 ft 405 kts 282°
2026-05-03 21:33 33.49690 -113.03588 22827 ft 408 kts 282°
2026-05-03 21:33 33.50307 -113.06920 23243 ft 411 kts 282°
2026-05-03 21:33 33.50916 -113.10227 23654 ft 413 kts 282°
2026-05-03 21:33 33.51540 -113.13598 24050 ft 416 kts 282°
2026-05-03 21:34 33.52169 -113.16986 24435 ft 418 kts 282°
2026-05-03 21:34 33.52801 -113.20398 24806 ft 421 kts 282°
2026-05-03 21:34 33.53435 -113.23831 25158 ft 423 kts 282°
2026-05-03 21:34 33.54067 -113.27285 25503 ft 425 kts 282°
2026-05-03 21:35 33.54701 -113.30751 25837 ft 427 kts 282°
2026-05-03 21:35 33.55341 -113.34243 26129 ft 431 kts 282°
2026-05-03 21:35 33.55990 -113.37778 26251 ft 438 kts 282°
2026-05-03 21:35 33.56642 -113.41320 26375 ft 444 kts 282°
2026-05-03 21:36 33.57309 -113.44963 26505 ft 450 kts 282°
2026-05-03 21:36 33.57978 -113.48649 26633 ft 455 kts 282°
2026-05-03 21:36 33.58653 -113.52378 26759 ft 460 kts 282°
2026-05-03 21:36 33.59343 -113.56129 26896 ft 463 kts 282°
2026-05-03 21:37 33.60050 -113.59908 27093 ft 465 kts 282°